EW5170 Weather Reports


time (UTC)temp
F
wind
direction
speed
knots
gust
knots
rain 1hr
in
rain 24hr
in
rain mn
in
humidity
%
barometer
mb
20260506024536 78 254 0.0 2.6 0.00 0.00 0.00 80 1004.3
20260506023022 78 346 0.0 0.0 0.00 0.00 0.00 79 1003.9
20260506021522 79 338 0.0 0.9 0.00 0.00 0.00 78 1003.7
20260506020024 79 82 0.0 1.7 0.00 0.00 0.00 77 1003.3
20260506014522 80 40 0.0 0.0 0.00 0.00 0.00 76 1003.2
20260506013022 80 32 0.0 0.0 0.00 0.00 0.00 75 1003.1
20260506011546 81 337 0.0 0.9 0.00 0.00 0.00 74 1003.0
20260506010020 82 177 0.0 0.0 0.00 0.00 0.00 74 1003.0
20260506004519 82 175 0.0 0.0 0.00 0.00 0.00 73 1003.0
20260506003019 82 257 0.0 0.9 0.00 0.00 0.00 72 1002.9
20260506001518 83 148 0.0 0.0 0.00 0.00 0.00 71 1003.1
20260506000030 83 148 0.0 0.9 0.00 0.00 0.00 71 1003.0
20260505234534 84 213 0.0 0.9 0.00 0.00 0.00 70 1002.8
20260505233016 84 360 0.0 1.7 0.00 0.00 0.00 69 1002.6
20260505231516 84 232 0.0 1.7 0.00 0.00 0.00 68 1002.4
20260505230028 85 236 0.9 6.1 0.00 0.00 0.00 67 1002.4
20260505224523 85 308 0.0 1.7 0.00 0.00 0.00 66 1002.3
20260505223016 86 194 0.0 1.7 0.00 0.00 0.00 65 1002.3
20260505221512 86 192 0.0 2.6 0.00 0.00 0.00 66 1002.2
20260505220011 86 153 0.0 3.5 0.00 0.00 0.00 65 1002.5
20260505214514 86 184 0.9 4.3 0.00 0.00 0.00 64 1002.8
20260505213007 87 103 0.0 2.6 0.00 0.00 0.00 65 1002.8
20260505211504 86 233 0.0 5.2 0.00 0.00 0.00 65 1003.3
20260505210003 86 196 0.0 3.5 0.00 0.00 0.00 65 1003.2
20260505204501 86 155 0.0 1.7 0.00 0.00 0.00 68 1003.4
20260505203110 86 208 0.0 3.5 0.00 0.00 0.00 67 1003.5
20260505201556 86 109 0.0 3.5 0.00 0.00 0.00 67 1003.8
20260505200054 85 116 0.9 2.6 0.00 0.00 0.00 68 1004.1
20260505194606 85 234 0.9 6.1 0.00 0.00 0.00 69 1004.2
20260505193048 84 18 0.0 1.7 0.00 0.00 0.00 71 1004.5
20260505191555 83 201 0.0 2.6 0.00 0.00 0.00 73 1004.6
20260505190043 81 263 0.0 2.6 0.00 0.00 0.00 73 1004.8
20260505184539 80 237 0.9 3.5 0.00 0.00 0.00 75 1005.0
20260505183035 79 217 0.0 3.5 0.00 0.00 0.00 78 1005.2
20260505181536 78 252 0.0 4.3 0.00 0.00 0.00 78 1005.3
20260505180038 78 248 0.0 3.5 0.00 0.00 0.00 79 1005.6
20260505174526 77 269 0.9 4.3 0.00 0.00 0.00 80 1005.8
20260505173025 76 252 0.0 7.0 0.00 0.00 0.00 82 1005.8
20260505171517 75 236 0.9 4.3 0.00 0.00 0.00 83 1005.8
20260505170017 75 212 0.9 6.1 0.00 0.00 0.00 84 1005.9
20260505164510 74 282 0.0 3.5 0.00 0.00 0.00 85 1006.0
20260505163010 73 198 0.9 6.1 0.00 0.00 0.00 85 1006.0
20260505161505 73 298 0.0 3.5 0.00 0.00 0.00 86 1005.9
20260505153108 72 257 0.0 4.3 0.00 0.00 0.00 86 1006.0
20260505151559 72 322 0.0 6.1 0.00 0.00 0.00 87 1005.9
20260505150120 72 159 0.0 3.5 0.00 0.00 0.00 87 1005.9
20260505124551 70 300 0.0 2.6 0.00 0.00 0.00 87 1004.8
20260505123050 70 101 0.0 3.5 0.00 0.00 0.00 87 1004.5
20260505121611 70 248 0.0 1.7 0.00 0.00 0.00 86 1004.3
20260505120038 70 287 0.0 3.5 0.00 0.00 0.00 86 1004.1
20260505114541 70 360 0.0 7.0 0.00 0.00 0.00 86 1004.0
20260505113038 70 91 0.9 4.3 0.00 0.00 0.00 86 1004.2
20260505111540 70 46 0.9 7.8 0.00 0.00 0.00 86 1004.0
20260505101539 70 13 0.0 2.6 0.00 0.00 0.00 85 1004.4
20260505100038 70 250 0.0 1.7 0.00 0.00 0.00 85 1004.5
20260505094529 70 193 0.0 2.6 0.00 0.00 0.00 85 1004.4
20260505093031 70 279 0.0 2.6 0.00 0.00 0.00 85 1004.7
20260505091534 70 268 0.0 4.3 0.00 0.00 0.00 85 1004.6
20260505090026 70 172 0.0 7.8 0.00 0.00 0.00 85 1004.8
20260505084526 70 175 0.0 6.1 0.00 0.00 0.00 85 1004.8
20260505083033 70 170 0.0 4.3 0.00 0.00 0.00 84 1004.9
20260505081625 70 274 1.7 7.8 0.00 0.00 0.00 84 1005.0
20260505080027 71 217 0.0 4.3 0.00 0.00 0.00 84 1005.0
20260505074519 71 296 0.0 5.2 0.00 0.00 0.00 83 1005.4
20260505073019 71 25 0.0 3.5 0.00 0.00 0.00 83 1005.5
20260505071522 71 355 0.0 7.0 0.00 0.00 0.00 83 1005.8
20260505070014 71 213 0.0 5.2 0.00 0.00 0.00 83 1005.9
20260505064512 71 332 0.0 4.3 0.00 0.00 0.00 82 1006.1
20260505063015 71 234 0.9 4.3 0.00 0.00 0.00 82 1006.2
20260505061511 71 184 0.0 3.5 0.00 0.00 0.00 82 1006.4
20260505060008 71 311 0.0 1.7 0.00 0.00 0.00 82 1006.4
20260505054508 71 134 0.0 2.6 0.00 0.00 0.00 81 1006.5
20260505053006 72 61 0.0 1.7 0.00 0.00 0.00 81 1006.3
20260505051505 72 188 0.9 2.6 0.00 0.00 0.00 81 1006.4
20260505041611 73 247 0.0 3.5 0.00 0.00 0.00 79 1006.3
20260505040105 73 155 0.0 4.3 0.00 0.00 0.00 78 1006.4
20260505034600 73 204 0.0 1.7 0.00 0.00 0.00 77 1006.5
20260505033059 74 142 0.0 4.3 0.00 0.00 0.00 76 1006.3
20260505031605 74 296 0.0 0.0 0.00 0.00 0.00 75 1006.2
20260505030107 75 151 0.0 1.7 0.00 0.00 0.00 75 1006.4